Regional Weather Roundup
Issued by NWS New Orleans/Baton Rouge, LA

Home | Current Version | Previous Version | Graphics & Text | Print | Product List | Glossary On
Versions: 1 2 3 4 5 6 7 8 9 10 11 12 13 14 15 16 17 18 19 20 21 22 23 24 25 26 27 28 29 30 31 32 33 34 35 36 37 38 39 40 41 42 43 44 45 46 47 48 49 50
081
ASUS44 KLIX 222301
RWRLIX
NEW ORLEANS REGIONAL WEATHER ROUNDUP
NATIONAL WEATHER SERVICE NEW ORLEANS LA
600 PM CDT TUE JUL 22 2014

NOTE: "FAIR" INDICATES FEW OR NO CLOUDS BELOW 12,000 FEET WITH NO
      SIGNIFICANT WEATHER AND/OR OBSTRUCTIONS TO VISIBILITY.
      SKY/WX - SKY CONDITION AND SIGNIFICANT WEATHER.
      TMP - AIR TEMPERATURE.     DP    - DEWPOINT TEMPERATURE.
      RH  - RELATIVE HUMIDITY.   PRES  - PRESSURE.
      HI  - HEAT INDEX.          WCI   - WIND CHILL INDEX.

*  THESE STATIONS ARE NOT NWS OR FAA STATIONS AND ARE NOT UNDER
   NWS QUALITY CONTROL.

LAZ038-040-048-061>063-065>067-069-230000-
SOUTHEAST LOUISIANA

CITY           SKY/WX    TMP DP  RH WIND       PRES   REMARKS
N.O. AUDUBON     N/A     83  73  72 MISG        N/A
N.O. INTL ARPT TSTM      81  71  71 S5        29.99F
N.O. LAKEFRONT CLOUDY    84  73  69 S10       30.01S
N.O. DOWNTOWN*   N/A     84  70  61 S5        30.00F
SLIDELL        LGT RAIN  79  74  84 NE7       30.01R
BATON ROUGE    CLOUDY    82  73  74 VRB5      30.01R
BOOTHVILLE     LGT RAIN  77  72  84 CALM      30.00F
BELLE CHASSE   NOT AVBL
BOGALUSA*        N/A     75  70  83 SE3       30.04S
GALLIANO*      NOT AVBL
NEW ROADS*     TSTM      78  74  88 N13G20    30.02R
GONZALES*        N/A     87  72  61 N3        29.98S
HAMMOND*       CLOUDY    86  70  58 E9        30.02R
HOUMA*         MOSUNNY   82  72  69 E6        30.01S FOG
PORT FOURCHON* CLEAR     81  75  83 NE8       30.02F

$$

MSZ070-080>082-230000-
SOUTHERN MISSISSIPPI

CITY           SKY/WX    TMP DP  RH WIND       PRES   REMARKS
MCCOMB         PTSUNNY   84  71  65 NE5       30.03R
GULFPORT       PTSUNNY   81  70  69 NE6       30.02R
BILOXI         NOT AVBL
PASCAGOULA     MOSUNNY   81  70  69 NW5       30.01S
STENNIS ARPT*  PTSUNNY  N/A N/A N/A NW6       30.02R THUNDER

$$

COASTAL OBSERVATIONS
LAKE AND NEARSHORE STATIONS

STATION/POSITION TIME  TEMP    WIND        PRES    WAVE
                       AIR SEA DIR/SP/G            HT/PER
                 (UTC) (F)     (DEG/KT/KT) (MB)    (FT/S)
PASCAGOULA       2200   85     240/  7/ 10 1015.8
WAVELAND YACHT   2200   78     340/ 14/ 17 1016.2
GRAND ISLE       2200   77 85  230/  4/  6 1016.9
SOUTHWEST PASS   2200   84 86  250/ 11/ 12 1016.5
NEW CANAL        2200   86 84  190/  7/ 11 1016.5
SHELL BEACH      2200   83 83  200/ 11/ 12 1015.9

OFFSHORE STATIONS

STATION/POSITION TIME  TEMP    WIND        PRES    WAVE
                       AIR SEA DIR/SP/G            HT/PER
                 (UTC) (F)     (DEG/KT/KT) (MB)    (FT/S)
64 S DAUPHIN ISL 2250   83 86  230/  6/  8 1016.4

$$




USA.gov is the U.S. government's official web portal to all federal, state and local government web resources and services.